Total_Precipitation_Accumulation
0.01 0.04 0.15 0.25 0.34 0.52 0.65 0.41 0.31 0.17 0.15 0.19 0.18 0.17 0.20 0.24 0.25 0.30 0.11 0.04 0.01 0.01 0.03 0.04 0.05 0.04 0.04 0.04 0.06 0.07 0.07 0.07 0.09 0.11 0.14 0.15 0.17 0.14 0.10 0.08 0.07 0.07 0.06 0.05 0.04 0.05 0.06 0.06 0.06
0.01 0.04 0.15 0.24 0.44 0.80 0.68 0.34 0.20 0.13 0.15 0.19 0.19 0.21 0.27 0.27 0.22 0.24 0.11 0.03 0.02 0.01 0.02 0.03 0.05 0.04 0.04 0.04 0.06 0.08 0.09 0.07 0.08 0.14 0.15 0.14 0.16 0.15 0.14 0.12 0.11 0.10 0.07 0.05 0.04 0.04 0.04 0.05 0.03
0.01 0.04 0.13 0.24 0.48 0.66 0.55 0.32 0.16 0.11 0.18 0.31 0.31 0.26 0.32 0.32 0.30 0.28 0.13 0.03 0.02 0.03 0.06 0.05 0.05 0.04 0.04 0.04 0.06 0.08 0.10 0.09 0.10 0.14 0.15 0.13 0.14 0.16 0.15 0.17 0.18 0.14 0.09 0.06 0.05 0.05 0.04 0.04 0.03
0.01 0.04 0.10 0.20 0.32 0.35 0.31 0.21 0.14 0.13 0.18 0.31 0.38 0.32 0.32 0.24 0.17 0.17 0.10 0.04 0.03 0.04 0.08 0.08 0.05 0.05 0.04 0.04 0.04 0.06 0.08 0.10 0.11 0.14 0.14 0.15 0.18 0.17 0.13 0.17 0.17 0.15 0.10 0.08 0.08 0.08 0.05 0.04 0.03
0.02 0.04 0.09 0.18 0.25 0.27 0.24 0.20 0.15 0.17 0.22 0.31 0.31 0.36 0.34 0.22 0.16 0.12 0.07 0.04 0.03 0.03 0.05 0.06 0.06 0.06 0.06 0.05 0.04 0.05 0.07 0.08 0.10 0.13 0.15 0.15 0.17 0.19 0.18 0.16 0.15 0.12 0.10 0.09 0.14 0.16 0.13 0.08 0.06
0.02 0.03 0.06 0.12 0.18 0.22 0.20 0.16 0.13 0.17 0.22 0.29 0.32 0.34 0.35 0.22 0.15 0.12 0.08 0.06 0.04 0.04 0.05 0.08 0.09 0.08 0.08 0.07 0.06 0.06 0.07 0.09 0.09 0.10 0.12 0.11 0.11 0.13 0.15 0.15 0.15 0.12 0.13 0.15 0.16 0.15 0.17 0.17 0.14
0.01 0.02 0.02 0.05 0.08 0.10 0.13 0.14 0.15 0.18 0.27 0.27 0.28 0.42 0.43 0.35 0.23 0.14 0.12 0.12 0.09 0.08 0.09 0.11 0.12 0.12 0.11 0.10 0.10 0.10 0.10 0.11 0.11 0.11 0.12 0.12 0.12 0.14 0.16 0.15 0.15 0.14 0.16 0.17 0.17 0.14 0.13 0.17 0.16
0.01 0.01 0.01 0.02 0.03 0.05 0.06 0.09 0.13 0.19 0.19 0.21 0.26 0.41 0.48 0.43 0.28 0.24 0.30 0.26 0.18 0.15 0.13 0.15 0.20 0.24 0.19 0.17 0.17 0.15 0.16 0.16 0.17 0.17 0.17 0.18 0.19 0.20 0.22 0.21 0.20 0.22 0.25 0.24 0.22 0.18 0.18 0.20 0.19
0.00 0.01 0.00 0.01 0.01 0.02 0.04 0.08 0.11 0.10 0.14 0.16 0.21 0.28 0.32 0.32 0.31 0.39 0.50 0.45 0.33 0.22 0.17 0.16 0.19 0.26 0.24 0.21 0.21 0.24 0.25 0.26 0.26 0.31 0.31 0.31 0.34 0.40 0.44 0.39 0.45 0.49 0.52 0.51 0.47 0.41 0.38 0.34 0.29
0.00 0.00 0.00 0.00 0.00 0.01 0.03 0.06 0.10 0.12 0.19 0.28 0.41 0.43 0.35 0.44 0.53 0.69 0.67 0.61 0.53 0.34 0.26 0.21 0.22 0.24 0.24 0.23 0.35 0.39 0.40 0.45 0.41 0.51 0.57 0.59 0.63 0.62 0.51 0.60 0.82 1.04 1.13 1.06 1.03 1.00 0.82 0.69 0.65
0.00 0.00 0.00 0.00 0.00 0.00 0.01 0.04 0.08 0.13 0.31 0.46 0.58 0.54 0.48 0.68 0.78 0.98 1.02 0.98 0.85 0.67 0.46 0.32 0.31 0.37 0.39 0.43 0.46 0.51 0.59 0.71 0.66 0.70 0.82 0.95 0.95 0.76 0.66 0.75 0.95 1.16 1.31 1.40 1.71 1.73 1.35 1.34 1.31
0.00 0.00 0.00 0.00 0.00 0.00 0.01 0.04 0.12 0.20 0.46 0.49 0.65 0.57 0.54 0.73 0.88 1.07 1.48 1.43 1.06 0.73 0.64 0.61 0.54 0.60 0.66 0.64 0.70 0.74 0.77 0.83 0.85 0.98 1.08 1.19 1.19 1.08 1.01 1.11 1.20 1.37 1.48 1.79 1.89 1.97 1.81 1.64 1.47
0.00 0.00 0.00 0.00 0.00 0.01 0.03 0.06 0.11 0.22 0.36 0.46 0.59 0.55 0.48 0.78 0.89 1.12 1.59 1.39 1.16 1.06 0.94 0.88 0.84 0.95 0.96 0.94 0.98 0.94 0.97 1.00 1.09 1.19 1.30 1.36 1.40 1.33 1.32 1.42 1.51 1.38 1.51 1.79 2.01 1.97 2.11 2.11 1.93
0.00 0.00 0.00 0.01 0.01 0.01 0.03 0.08 0.15 0.28 0.37 0.49 0.56 0.67 0.72 0.95 1.07 1.23 1.40 1.55 1.35 1.30 1.22 1.18 1.11 1.18 1.23 1.25 1.32 1.30 1.17 1.20 1.22 1.39 1.45 1.54 1.56 1.60 1.67 1.70 1.67 1.50 1.52 1.76 2.03 1.96 2.22 2.14 2.10
0.01 0.01 0.04 0.02 0.03 0.03 0.04 0.16 0.29 0.35 0.50 0.59 0.66 0.69 0.81 1.00 1.29 1.41 1.51 1.65 1.59 1.53 1.50 1.44 1.40 1.56 1.73 1.79 1.81 1.73 1.58 1.47 1.46 1.51 1.58 1.67 1.67 1.79 1.80 1.73 1.70 1.69 1.67 1.86 1.96 2.02 2.17 1.99 1.85
0.01 0.03 0.09 0.08 0.06 0.06 0.10 0.39 0.42 0.36 0.59 0.72 0.77 0.86 1.09 1.19 1.40 1.66 1.81 1.54 1.47 1.63 1.70 1.54 1.59 1.95 2.27 2.26 2.19 2.06 1.88 1.73 1.61 1.66 1.63 1.71 1.76 1.88 1.99 1.78 1.70 1.93 1.96 2.06 2.24 2.20 2.28 2.32 2.18
0.01 0.05 0.08 0.11 0.07 0.08 0.19 0.61 0.52 0.37 0.50 0.64 0.88 1.00 1.33 1.50 1.66 1.67 1.62 1.59 1.66 1.77 1.78 1.77 1.92 2.18 2.38 2.43 2.47 2.27 2.07 1.89 1.70 1.63 1.58 1.64 1.80 2.02 2.29 2.06 2.04 2.15 2.16 2.17 1.94 2.36 2.62 2.54 2.37
0.01 0.03 0.07 0.11 0.08 0.13 0.24 0.46 0.50 0.44 0.57 0.75 1.00 1.13 1.21 1.36 1.54 1.59 1.64 1.74 1.82 1.94 2.00 1.98 2.10 2.34 2.69 2.95 2.98 2.62 2.25 1.99 1.84 1.77 1.77 1.85 2.05 2.24 2.47 2.24 2.19 2.24 2.30 2.22 2.28 2.58 2.58 2.35 2.32
0.01 0.04 0.10 0.12 0.10 0.16 0.27 0.47 0.61 0.59 0.73 1.09 1.25 1.16 1.11 1.25 1.53 1.74 1.91 1.93 2.11 2.17 2.29 2.36 2.56 2.95 3.34 3.29 3.02 2.82 2.52 2.30 2.12 2.00 1.92 1.94 1.96 2.14 2.39 2.22 2.37 2.32 2.18 2.15 2.29 2.51 2.51 2.25 2.47
0.02 0.06 0.13 0.14 0.12 0.20 0.34 0.56 0.70 0.79 1.01 1.15 1.05 1.00 1.14 1.33 1.64 1.89 1.99 2.02 2.15 2.37 2.71 2.85 2.96 3.35 3.59 3.47 3.31 3.11 2.91 2.56 2.46 2.36 2.21 1.99 1.89 2.01 2.11 2.29 2.16 2.14 2.13 2.13 2.29 2.44 2.24 1.97 2.43
0.03 0.06 0.11 0.11 0.18 0.29 0.37 0.71 0.86 0.97 1.11 1.09 1.04 1.19 1.23 1.22 1.49 1.64 1.60 1.62 1.70 1.84 2.06 2.36 2.72 3.14 3.28 3.35 3.29 3.18 3.10 2.69 2.54 2.40 2.24 2.04 1.92 1.89 1.99 2.10 2.11 2.02 2.01 2.00 2.17 2.23 2.18 2.05 2.21
0.05 0.05 0.05 0.08 0.15 0.39 0.45 0.90 1.09 1.29 1.37 1.19 1.14 1.12 1.12 1.29 1.49 1.38 1.23 1.31 1.37 1.35 1.59 1.89 2.24 2.56 2.79 2.93 2.97 3.00 2.90 2.70 2.64 2.47 2.14 1.92 1.80 1.81 1.87 1.89 1.88 1.88 1.83 1.82 1.78 1.89 2.20 2.24 2.06
0.04 0.04 0.06 0.09 0.16 0.34 0.38 0.70 1.13 1.46 1.57 1.23 1.12 1.06 1.11 1.27 1.23 1.13 1.13 1.22 1.26 1.31 1.55 1.76 1.93 2.20 2.45 2.55 2.55 2.56 2.46 2.37 2.31 2.17 1.94 1.78 1.67 1.61 1.52 1.55 1.72 1.77 1.69 1.64 1.66 1.78 1.93 1.96 1.94
0.04 0.07 0.12 0.16 0.30 0.55 0.47 0.60 1.07 1.39 1.23 1.06 1.01 0.86 0.92 1.02 1.05 1.06 1.12 1.17 1.24 1.47 1.72 1.89 2.03 2.22 2.33 2.19 2.04 2.02 2.03 2.06 1.97 1.84 1.68 1.52 1.43 1.36 1.30 1.38 1.52 1.57 1.56 1.55 1.52 1.58 1.68 1.76 1.80
0.07 0.15 0.45 0.70 0.96 0.87 0.59 0.71 1.24 1.07 0.78 0.72 0.81 0.80 0.79 0.79 0.86 0.89 1.07 1.29 1.37 1.41 1.42 1.63 1.90 2.13 2.12 1.93 1.76 1.68 1.68 1.73 1.72 1.62 1.52 1.45 1.33 1.25 1.23 1.26 1.28 1.31 1.35 1.40 1.44 1.46 1.52 1.66 1.72
0.11 0.21 0.56 0.70 0.72 0.73 0.61 0.97 1.33 0.94 0.66 0.57 0.64 0.66 0.58 0.53 0.46 0.47 0.57 0.69 0.71 0.71 0.70 0.77 0.91 1.10 1.18 1.14 1.14 1.13 1.17 1.24 1.29 1.39 1.34 1.34 1.29 1.18 1.13 1.08 1.06 1.12 1.15 1.18 1.31 1.41 1.50 1.61 1.68
0.22 0.26 0.25 0.41 0.54 0.78 0.74 0.89 0.88 0.67 0.60 0.52 0.55 0.52 0.45 0.43 0.36 0.33 0.37 0.38 0.43 0.43 0.47 0.56 0.64 0.71 0.76 0.74 0.72 0.74 0.80 0.90 0.97 1.04 1.07 1.11 1.12 1.06 1.04 1.05 1.07 1.05 1.07 1.12 1.21 1.30 1.34 1.48 1.57
0.19 0.25 0.38 0.58 0.70 0.72 0.74 0.99 1.10 0.98 0.84 0.69 0.66 0.60 0.46 0.37 0.32 0.30 0.31 0.33 0.41 0.50 0.59 0.65 0.65 0.61 0.56 0.56 0.56 0.54 0.60 0.66 0.72 0.76 0.79 0.79 0.81 0.85 0.86 0.87 0.90 0.92 0.93 0.96 1.06 1.15 1.23 1.34 1.40
0.19 0.25 0.39 0.53 0.56 0.62 0.76 0.83 0.66 0.68 0.77 0.85 0.90 0.76 0.51 0.37 0.31 0.30 0.28 0.32 0.37 0.46 0.53 0.59 0.60 0.58 0.55 0.53 0.53 0.53 0.52 0.52 0.55 0.62 0.63 0.66 0.67 0.69 0.70 0.73 0.76 0.81 0.85 0.91 0.95 0.99 1.08 1.13 1.17
0.15 0.23 0.36 0.55 0.59 0.62 0.67 0.69 0.40 0.41 0.51 0.61 0.62 0.52 0.37 0.29 0.26 0.24 0.24 0.25 0.29 0.35 0.42 0.46 0.48 0.52 0.52 0.47 0.48 0.50 0.48 0.45 0.47 0.49 0.50 0.53 0.57 0.60 0.61 0.64 0.66 0.71 0.77 0.86 0.96 1.01 1.07 1.09 1.09